Flag for Germany Weather past 2 weeks in Saarbrücken, Saarland, Germany

Now
72 °F

Partly sunny.


Feels Like: 75 °F
Forecast: 57 / 73 °F
Wind: 10 mph from Southwest

Location: Saarbruecken / Ensheim

Current Time: Sep 19, 2014 at 2:42:05 PM

Latest Report: Sep 19, 2014 at 2:20 PM


Visibility: N/A

Pressure: 29.95 "Hg

Humidity: 69%

Dew point: 61 °F

Location of SaarbrückenLocation

Historic Weather in Saarbrücken — Graph

°F

Saarbrücken temperature yesterday

Maximum temperature yesterday: 75 °F (at 1:50 PM)
Minimum temperature yesterday: 61 °F (at 3:50 AM)
Average temperature yesterday: 66 °F

Past Weeks' High & Low Weather Summary

 TemperatureHumidityPressure
High77 °F (Sep 5, 5:20 PM)100% (Sep 5, 2:50 AM)30.18 "Hg (Sep 5, 2:50 AM)
Low46 °F (Sep 12, 5:20 AM)47% (Sep 7, 4:50 PM)29.86 "Hg (Sep 17, 3:20 PM)
Average62 °F78%30.01 "Hg
* Reported Sep 4 1:20 PM — Sep 19 1:20 PM, Saarbrücken, Weather by CustomWeather, © 2014

Note: Actual official high and low records may vary slightly from our data, if they occured in-between our weather recording intervals... More about our weather records

Advertising

Saarbrücken weather history for previous 24 hours

 ConditionsComfort  
Time TempWeatherWind HumidityBarometerVisibility
1:20 PM
Sep 19
73 °FPartly sunny.10 mph65%29.95 "HgN/A
12:50 PM72 °FPartly sunny.7 mph69%29.92 "HgN/A
12:20 PM72 °FPartly sunny.6 mph69%29.95 "HgN/A
11:50 AM70 °FPartly sunny.7 mph78%29.95 "HgN/A
11:20 AM68 °FBroken clouds.9 mph78%29.95 "HgN/A
10:50 AM68 °FPartly sunny.6 mph83%29.95 "HgN/A
10:20 AM64 °FBroken clouds.5 mph94%29.95 "HgN/A
9:50 AM63 °FBroken clouds.6 mph94%29.95 "HgN/A
9:20 AM63 °FBroken clouds.3 mph94%29.92 "HgN/A
8:50 AM61 °FBroken clouds.6 mph100%29.92 "Hg6 mi
8:20 AM61 °FLight rain. Partly sunny.2 mph94%29.92 "Hg6 mi
7:50 AM61 °FPartly cloudy.3 mph94%29.92 "Hg6 mi
7:20 AM61 °FRain. Partly cloudy.5 mph94%29.92 "Hg5 mi
6:50 AM61 °FRain. Mostly cloudy.7 mph94%29.89 "Hg5 mi
6:20 AM61 °FRain. Mostly cloudy.8 mph94%29.89 "Hg6 mi
5:50 AM61 °FRain. Passing clouds.7 mph94%29.89 "Hg6 mi
5:20 AM61 °FLight rain. Partly cloudy.7 mph94%29.89 "HgN/A
4:50 AM61 °FSprinkles. Passing clouds.6 mph94%29.89 "HgN/A
4:20 AM63 °FRain. Partly cloudy.7 mph88%29.92 "HgN/A
3:50 AM63 °FMild.14 mph88%29.89 "HgN/A
3:20 AM63 °FPassing clouds.3 mph88%29.89 "HgN/A
2:50 AM61 °FClear.3 mph94%29.89 "Hg10 mi
2:20 AM61 °FClear.3 mph94%29.89 "Hg10 mi
1:50 AM61 °FClear.3 mph88%29.89 "Hg10 mi
1:20 AM61 °FClear.5 mph88%29.89 "Hg10 mi
12:50 AM61 °FClear.3 mph88%29.89 "Hg10 mi
12:20 AM63 °FClear.5 mph88%29.89 "Hg10 mi
11:50 PM
Sep 18
63 °FClear.5 mph88%29.89 "Hg10 mi
11:20 PM64 °FClear.3 mph83%29.89 "Hg10 mi
10:50 PM66 °FClear.2 mph83%29.89 "Hg10 mi
10:20 PM66 °FClear.5 mph78%29.89 "Hg10 mi
9:50 PM66 °FPassing clouds.5 mph73%29.89 "HgN/A
9:20 PM66 °FPartly cloudy.6 mph78%29.89 "HgN/A
8:50 PM68 °FPartly cloudy.6 mph73%29.89 "HgN/A
8:20 PM68 °FBroken clouds.2 mph73%29.89 "HgN/A
7:50 PM70 °FBroken clouds.5 mph69%29.89 "HgN/A
7:20 PM70 °FBroken clouds.5 mph69%29.89 "HgN/A
6:50 PM70 °FBroken clouds.6 mph69%29.89 "HgN/A
6:20 PM72 °FBroken clouds.5 mph69%29.89 "HgN/A
5:50 PM72 °FPartly sunny.7 mph65%29.86 "HgN/A
5:20 PM72 °FPartly sunny.7 mph65%29.86 "HgN/A
4:50 PM72 °FPartly sunny.8 mph65%29.86 "HgN/A
4:20 PM72 °FPartly sunny.9 mph65%29.89 "HgN/A
3:50 PM73 °FPartly sunny.9 mph61%29.86 "HgN/A
3:20 PM75 °FScattered clouds.9 mph57%29.86 "HgN/A
2:50 PM75 °FScattered clouds.9 mph57%29.86 "HgN/A
2:20 PM75 °FPartly sunny.9 mph54%29.89 "HgN/A
Weather by CustomWeather, © 2014

See weather overviewHow to use our weather pages